Location: Newark
(48.5156°N, 1.8989°W)
Time: 18:47:18
(UTC+00:00)

Tiros 1 - All Passes

Search period start: 22 November 2019 00:00
Search period end: 02 December 2019 00:00
Orbit: 630 x 664 km, 48.4° (Epoch: 22 November)

Date Brightness Start Highest point End Pass type
(mag) Time Alt. Az. Time Alt. Az. Time Alt. Az.
22 Nov - 13:12:44 10° SSW 13:16:54 34° SSE 13:21:05 10° E daylight
22 Nov - 14:54:09 10° WSW 14:58:46 79° SSE 15:03:25 10° E daylight
22 Nov - 16:36:20 10° W 16:40:59 85° S 16:45:39 10° E daylight
22 Nov - 18:18:36 10° W 18:22:58 42° SSW 18:27:21 10° SE visible
22 Nov - 20:02:35 10° WSW 20:04:17 12° SW 20:06:00 10° SSW visible
23 Nov - 11:58:06 10° S 12:01:13 18° SE 12:04:22 10° E daylight
23 Nov - 13:38:14 10° SW 13:42:45 55° SSE 13:47:17 10° E daylight
23 Nov - 15:20:13 10° W 15:24:51 90° S 15:29:31 10° E daylight
23 Nov - 17:02:26 10° W 17:07:01 67° SSW 17:11:39 10° ESE visible
23 Nov - 18:44:58 10° W 18:48:43 24° SW 18:52:30 10° SSE visible
24 Nov - 12:22:47 10° SSW 12:26:54 32° SSE 12:31:02 10° E daylight
24 Nov - 14:04:08 10° WSW 14:08:45 77° SSE 14:13:23 10° E daylight
24 Nov - 15:46:19 10° W 15:50:58 86° S 15:55:37 10° E daylight
24 Nov - 17:28:34 10° W 17:32:58 44° SSW 17:37:23 10° SE visible
24 Nov - 19:12:16 10° WSW 19:14:19 13° SW 19:16:23 10° SSW visible
25 Nov - 11:08:18 10° S 11:11:15 17° SE 11:14:13 10° E daylight
25 Nov - 12:48:15 10° SW 12:52:45 53° SSE 12:57:15 10° E daylight
25 Nov - 14:30:11 10° W 14:34:50 89° S 14:39:29 10° E daylight
25 Nov - 16:12:24 10° W 16:17:01 69° SSW 16:21:38 10° ESE daylight
25 Nov - 17:54:54 10° W 17:58:44 26° SW 18:02:35 10° SSE visible
26 Nov - 11:32:51 10° SSW 11:36:54 31° SSE 11:40:57 10° E daylight
26 Nov - 13:14:06 10° WSW 13:18:43 75° SSE 13:23:21 10° E daylight
26 Nov - 14:56:17 10° W 15:00:55 87° SSW 15:05:35 10° E daylight
26 Nov - 16:38:32 10° W 16:42:57 46° SSW 16:47:23 10° SE daylight
26 Nov - 18:22:00 10° WSW 18:24:20 14° SW 18:26:41 10° SSW visible
27 Nov - 10:18:30 10° S 10:21:17 16° SE 10:24:03 10° E daylight
27 Nov - 11:58:15 10° SW 12:02:44 50° SSE 12:07:13 10° E daylight
27 Nov - 13:40:09 10° W 13:44:48 89° S 13:49:27 10° E daylight
27 Nov - 15:22:23 10° W 15:26:59 71° SSW 15:31:37 10° ESE daylight
27 Nov - 17:04:50 10° W 17:08:45 27° SW 17:12:41 10° SSE visible
28 Nov - 10:42:55 10° SSW 10:46:55 29° SE 10:50:54 10° E daylight
28 Nov - 12:24:05 10° WSW 12:28:42 73° SSE 12:33:19 10° E daylight
28 Nov - 14:06:15 10° W 14:10:54 88° S 14:15:33 10° E daylight
28 Nov - 15:48:30 10° W 15:52:57 48° SSW 15:57:24 10° SE daylight
28 Nov - 17:31:48 10° WSW 17:34:23 15° SW 17:36:57 10° S visible
29 Nov - 09:28:44 10° S 09:31:18 15° SE 09:33:52 10° ESE daylight
29 Nov - 11:08:16 10° SW 11:12:43 48° SSE 11:17:11 10° E daylight
29 Nov - 12:50:07 10° W 12:54:46 88° S 12:59:25 10° E daylight
29 Nov - 14:32:21 10° W 14:36:58 73° SSW 14:41:35 10° ESE daylight
29 Nov - 16:14:46 10° W 16:18:45 29° SSW 16:22:45 10° SSE daylight
30 Nov - 09:53:00 10° SSW 09:56:55 27° SE 10:00:50 10° E daylight
30 Nov - 11:34:04 10° WSW 11:38:41 71° SSE 11:43:18 10° E daylight
30 Nov - 13:16:13 10° W 13:20:52 89° S 13:25:31 10° E daylight
30 Nov - 14:58:27 10° W 15:02:56 51° SSW 15:07:25 10° SE daylight
30 Nov - 16:41:37 10° W 16:44:24 16° SW 16:47:11 10° S daylight
01 Dec - 08:39:00 10° SSE 08:41:20 14° SE 08:43:39 10° ESE daylight
01 Dec - 10:18:16 10° SW 10:22:43 46° SSE 10:27:09 10° E daylight
01 Dec - 12:00:05 10° W 12:04:44 87° S 12:09:23 10° E daylight
01 Dec - 13:42:19 10° W 13:46:57 75° SSW 13:51:34 10° ESE daylight
01 Dec - 15:24:42 10° W 15:28:46 31° SSW 15:32:49 10° SSE daylight
